Location: Newark
(15.4608°S, 41.1635°W)
Time: 23:34:04
(UTC+00:00)

Explorer 11/Cluster Stage 4 - Pass Details

Date: 13 August 2021
Orbit: 467 x 1256 km, 28.8° (Epoch: 24 September)

Event Time Altitude Azimuth Distance (km) Brightness Sun altitude
Rises 22:05:42 0° 237° (WSW) 3,441 10.6 -21.8°
Reaches altitude 10° 22:08:55 10° 225° (SW) 2,344 9.4 -22.6°
Enters shadow 22:13:07 26° 176° (S) 1,354 7.6 -23.6°
